{"data":{"norad_id":48112,"intl_designator":"2021-027W","name":"STARLINK-2449","alt_names":[],"object_type":"PAYLOAD","status":"ACTIVE","operator":null,"country":"US","launch_date":"2021-04-07","launch_site_code":"AFETR","launch_vehicle":null,"mission":null,"orbit_class":"UNKNOWN","rcs_meters":null,"size_class":null,"mass_kg":null,"dimensions":null,"purposes":["comms"],"wikipedia_slug":null,"has_3d_model":false,"image_url":null,"decayed_at":null,"tle_current":{"epoch":"2026-05-25T01:51:45.109152Z","epoch_age_seconds":64999,"freshness":"FRESH","line1":"1 48112U 21027W   26145.07760543  .00001605  00000+0  63493-4 0  9998","line2":"2 48112  53.1582 172.4965 0001356  85.2365 274.8791 15.31699838284184","mean_motion":15.31699838,"eccentricity":0.0001356,"inclination_deg":53.1582,"raan_deg":172.4965,"arg_perigee_deg":85.2365,"mean_anomaly_deg":274.8791,"bstar":6.3493e-5,"rev_number":28418,"period_min":94.013197904379,"perigee_km":469.81177035323,"apogee_km":471.6691859253,"semimajor_km":6848.8774781393,"source":"CELESTRAK","updated_at":"2026-05-25T13:38:16.644366Z"}}}